Weather History for PAFA - February, 2012

Change the Weather History Date:

Saturday, February 4, 2012

  Actual Average Record
Temperature  
Mean Temperature -16 °F -5 °F  
Max Temperature -5 °F 5 °F 42 °F (1941)
Min Temperature -27 °F -15 °F -56 °F (1947)
Degree Days  
Heating Degree Days 81 70  
Month to date heating degree days 305 283  
Since 1 July heating degree days 9145 8815  
Cooling Degree Days 0 0  
Month to date cooling degree days 0 0  
Year to date cooling degree days 0 0  
Moisture  
Dew Point -19 °F    
Average Humidity 78    
Maximum Humidity 86    
Minimum Humidity 68    
Precipitation  
Precipitation 0.00 in 0.02 in 0.38 in (1984)
Month to date precipitation 0.08 0.07  
Year to date precipitation 0.77 0.65  
Snow  
Snow 0.00 in 0.30 in 6.70 in (1984)
Month to date snowfall 1.8 1.2  
Since 1 July snowfall 37.0 49.4  
Snow Depth 20.00 in    
Sea Level Pressure  
Sea Level Pressure 30.13 in    
Wind  
Wind Speed 5 mph (NNE)    
Max Wind Speed 8 mph    
Max Gust Speed -    
Visibility 10 miles    
Events      
T = Trace of Precipitation, MM = Missing Value Source: NWS Daily Summary

Daily Weather History Graph

Daily Weather History Graph

Search for Another Location

Airport or City:

Trip Planner

Search our weather history database for the weather conditions in past years. The results will help you decide how hot, cold, wet, or windy it might be!

Date:

Astronomy

Feb. 04, 2012 Rise Set
Actual Time 9:28 AM AKST 4:43 PM AKST
Civil Twilight 8:30 AM AKST 5:41 PM AKST
Nautical Twilight 7:30 AM AKST 6:41 PM AKST
Astronomical Twilight 6:34 AM AKST 7:38 PM AKST
Moon 12:52 PM AKST 8:01 AM AKST
Length of Visible Light 9h 10m
Length of Day
7h 15m
Waxing Gibbous, 90% of the Moon is Illuminated
Feb 4
Waxing Gibbous
Feb 7
Full
Feb 14
Last Quarter
Feb 21
New
Feb 29
First Quarter

Hourly Weather History & Observations

Time (AKST) Temp. Windchill Dew Point Humidity Pressure Visibility Wind Dir Wind Speed Gust Speed Precip Events Conditions
12:53 AM -15.0 °F -29.3 °F -18.9 °F 82% 30.08 in 6.0 mi North 5.8 mph - N/A   Mostly Cloudy
1:53 AM -14.1 °F -29.9 °F -20.0 °F 75% 30.12 in 6.0 mi North 6.9 mph - N/A   Mostly Cloudy
2:53 AM -23.1 °F -36.8 °F -26.0 °F 86% 30.14 in 6.0 mi North 4.6 mph - N/A   Mostly Cloudy
3:53 AM -24.0 °F -40.0 °F -27.0 °F 86% 30.15 in 10.0 mi NNE 5.8 mph - N/A   Scattered Clouds
4:53 AM -25.1 °F -41.3 °F -29.0 °F 82% 30.15 in 10.0 mi North 5.8 mph - N/A   Partly Cloudy
5:53 AM -22.0 °F -37.7 °F -26.0 °F 82% 30.16 in 10.0 mi North 5.8 mph - N/A   Partly Cloudy
6:53 AM -14.1 °F -31.3 °F -20.0 °F 75% 30.14 in 10.0 mi North 8.1 mph - N/A   Clear
7:53 AM -18.0 °F -33.0 °F -24.0 °F 74% 30.13 in 10.0 mi ENE 5.8 mph - N/A   Clear
8:53 AM -18.9 °F - -24.0 °F 78% 30.15 in 10.0 mi Calm Calm - N/A   Scattered Clouds
9:53 AM -23.1 °F -36.8 °F -27.9 °F 78% 30.14 in 10.0 mi ENE 4.6 mph - N/A   Scattered Clouds
10:53 AM -16.1 °F -28.6 °F -20.9 °F 79% 30.12 in 10.0 mi NE 4.6 mph - N/A   Mostly Cloudy
11:53 AM -9.0 °F -23.8 °F -17.0 °F 68% 30.14 in 10.0 mi East 6.9 mph - N/A   Mostly Cloudy
12:53 PM -15.0 °F -27.4 °F -20.9 °F 75% 30.13 in 10.0 mi NNE 4.6 mph - N/A   Scattered Clouds
1:53 PM -13.0 °F -27.0 °F -18.0 °F 78% 30.12 in 10.0 mi NE 5.8 mph - N/A   Mostly Cloudy
2:53 PM -9.0 °F - -16.1 °F 71% 30.12 in 10.0 mi Calm Calm - N/A   Mostly Cloudy
3:53 PM -8.0 °F - -14.1 °F 75% 30.13 in 10.0 mi Calm Calm - N/A   Mostly Cloudy
4:53 PM -5.1 °F - -11.0 °F 76% 30.14 in 10.0 mi Calm Calm - N/A   Mostly Cloudy
5:53 PM -5.1 °F -13.6 °F -11.0 °F 76% 30.13 in 10.0 mi ENE 3.5 mph - N/A   Mostly Cloudy
6:53 PM -5.1 °F - -11.0 °F 76% 30.14 in 10.0 mi Calm Calm - N/A   Mostly Cloudy
7:53 PM -7.1 °F - -11.9 °F 79% 30.13 in 10.0 mi Calm Calm - N/A   Mostly Cloudy
8:53 PM -8.0 °F -16.9 °F -13.0 °F 79% 30.11 in 10.0 mi NW 3.5 mph - N/A   Mostly Cloudy
9:53 PM -9.0 °F - -14.1 °F 79% 30.11 in 10.0 mi Calm Calm - N/A   Scattered Clouds
10:53 PM -13.0 °F -22.7 °F -16.1 °F 86% 30.10 in 10.0 mi NE 3.5 mph - N/A   Scattered Clouds
11:53 PM -11.9 °F -23.8 °F -15.0 °F 86% 30.09 in 10.0 mi ENE 4.6 mph - N/A   Scattered Clouds